Mankato, MN

5:46 AM CDT on October 23, 2019 (GMT -0500)
Mankato Regional

Weather History for KMKT - May, 2019

Change the Weather History Date:

Friday, May 10, 2019

  Actual Average Record
Temperature  
Mean Temperature 47 °F -  
Max Temperature 59 °F 64 °F 93 °F (2011)
Min Temperature 37 °F 45 °F 35 °F (2002)
Degree Days  
Heating Degree Days 18    
Moisture  
Dew Point 34 °F    
Average Humidity 63    
Maximum Humidity 100    
Minimum Humidity 32    
Precipitation  
Precipitation 0.00 in - - ()
Sea Level Pressure  
Sea Level Pressure 30.14 in    
Wind  
Wind Speed 5 mph (West)    
Max Wind Speed 13 mph    
Max Gust Speed 16 mph    
Visibility 9 miles    
Events      
Averages and records for this station are not official NWS values.
T = Trace of Precipitation, MM = Missing Value Source: NWS Daily Summary

Daily Weather History Graph

Daily Weather History Graph

Search for Another Location

Airport or City:

Astronomy

May. 10, 2019 Rise Set
Actual Time 5:55 AM CDT 8:29 PM CDT
Civil Twilight 5:22 AM CDT 9:02 PM CDT
Nautical Twilight 4:40 AM CDT 9:44 PM CDT
Astronomical Twilight 3:53 AM CDT 10:31 PM CDT
Moon 10:53 AM CDT (5/10) 1:26 AM CDT (5/10)
Length of Visible Light 15h 40m
Length of Day
14h 34m
Waxing Crescent, 35% of the Moon is Illuminated
May 10
Waxing Crescent
May 11
First Quarter
May 18
Full
May 26
Last Quarter
Jun 3
New

Hourly Weather History & Observations

Time (CDT) Temp. Windchill Dew Point Humidity Pressure Visibility Wind Dir Wind Speed Gust Speed Precip Events Conditions
12:56 AM 43.0 °F 40.3 °F 37.9 °F 82% 30.13 in 10.0 mi WNW 4.6 mph - N/A   Clear
1:56 AM 42.1 °F 39.2 °F 37.9 °F 85% 30.12 in 10.0 mi West 4.6 mph - N/A   Clear
2:56 AM 42.1 °F 38.4 °F 37.0 °F 82% 30.12 in 10.0 mi WNW 5.8 mph - N/A   Clear
3:56 AM 39.9 °F 36.7 °F 37.0 °F 89% 30.13 in 10.0 mi WNW 4.6 mph - N/A   Clear
4:56 AM 39.0 °F 36.8 °F 36.0 °F 89% 30.13 in 10.0 mi WNW 3.5 mph - N/A   Clear
6:34 AM 37.4 °F - 35.6 °F 93% 30.11 in 1.5 mi Calm Calm - N/A   Clear
6:44 AM 37.4 °F 34.9 °F 37.4 °F 100% 30.11 in 5.0 mi West 3.5 mph - N/A   Clear
6:56 AM 37.9 °F 35.5 °F 37.0 °F 97% 30.14 in 10.0 mi West 3.5 mph - N/A   Clear
7:56 AM 42.1 °F 40.2 °F 39.0 °F 89% 30.15 in 10.0 mi WSW 3.5 mph - N/A   Clear
8:56 AM 46.0 °F - 37.9 °F 73% 30.18 in 10.0 mi Calm Calm - N/A   Clear
9:56 AM 50.0 °F - 37.0 °F 61% 30.20 in 10.0 mi South 5.8 mph - N/A   Clear
10:56 AM 52.0 °F - 37.9 °F 59% 30.20 in 10.0 mi SSW 8.1 mph - N/A   Clear
11:56 AM 53.1 °F - 37.9 °F 57% 30.19 in 10.0 mi SSW 8.1 mph - N/A   Overcast
12:56 PM 55.9 °F - 32.0 °F 40% 30.19 in 10.0 mi West 12.7 mph - N/A   Mostly Cloudy
1:56 PM 57.0 °F - 32.0 °F 39% 30.17 in 10.0 mi West 8.1 mph 16.1 mph N/A   Scattered Clouds
2:56 PM 55.9 °F - 30.0 °F 37% 30.15 in 10.0 mi WNW 6.9 mph - N/A   Partly Cloudy
3:56 PM 57.0 °F - 28.9 °F 34% 30.13 in 10.0 mi WNW 11.5 mph - N/A   Clear
4:56 PM 57.9 °F - 28.9 °F 33% 30.11 in 10.0 mi Variable 6.9 mph - N/A   Clear
5:56 PM 57.9 °F - 28.0 °F 32% 30.11 in 10.0 mi West 12.7 mph - N/A   Clear
6:56 PM 57.9 °F - 28.9 °F 33% 30.11 in 10.0 mi NW 5.8 mph - N/A   Clear
8:56 PM 55.9 °F - 28.0 °F 34% 30.12 in 10.0 mi Calm Calm - N/A   Clear
9:56 PM 53.1 °F - 30.0 °F 41% 30.12 in 10.0 mi SSE 6.9 mph - N/A   Clear
10:56 PM 46.9 °F - 34.0 °F 61% 30.12 in 10.0 mi SE 5.8 mph - N/A   Clear
11:56 PM 44.1 °F 40.1 °F 35.1 °F 71% 30.11 in 10.0 mi SE 6.9 mph - N/A   Clear